Home   Weather   Kadalkazhikaraparattu   Past weeks
Flag for India

Past Weather in Kadalkazhikaraparattu, Meghalaya, India — Yesterday and Last 2 Weeks

Currently: 81 °F. Fog. (Weather station: Thiruvananthapuram, India). See more current weather

Past Weather in Kadalkazhikaraparattu — Graph

°F

Kadalkazhikaraparattu Temperature Yesterday

Maximum temperature yesterday: 86 °F (at 3:30 pm)
Minimum temperature yesterday: 75 °F (at 1:00 am)
Average temperature yesterday: 80 °F

High & Low Weather Summary for the Past Weeks

 TemperatureHumidityPressure
High90 °F (Jul 11, 2:00 pm)94% (Jul 3, 4:30 am)29.89 "Hg (Jul 3, 4:30 am)
Low75 °F (Jul 6, 4:00 am)62% (Jul 6, 9:30 am)29.68 "Hg (Jul 6, 3:30 pm)
Average81 °F82%29.77 "Hg
* Reported Jul 2 3:30 pm — Jul 17 3:30 pm, Kadalkazhikaraparattu. Weather by CustomWeather, © 2024

Note: Actual official high and low records may vary slightly from our data, if they occured in-between our weather recording intervals... More about our weather records

Kadalkazhikaraparattu Weather History for the Previous 24 Hours

Scroll right to see more
 ConditionsComfort  
Time TempWeatherWind HumidityBarometerVisibility
3:30 pm
Wed, Jul 17
81 °FFog.7 mph79%29.74 "Hg2 mi
3:00 pm79 °FDrizzle. Fog.8 mph84%29.74 "Hg2 mi
2:30 pm79 °FFog.8 mph84%29.77 "Hg1 mi
2:00 pm79 °FFog.9 mph84%29.80 "Hg1 mi
1:30 pm79 °FDrizzle. Fog.10 mph84%29.80 "Hg1 mi
1:00 pm77 °FFog.10 mph89%29.80 "Hg1 mi
12:30 pm79 °FHeavy rain. More clouds than sun.17 mph84%29.80 "Hg1 mi
12:00 pm84 °FFog.9 mph84%29.80 "Hg3 mi
11:30 am82 °FFog.7 mph84%29.80 "Hg2 mi
11:00 am82 °FFog.6 mph84%29.83 "Hg2 mi
10:30 am82 °FFog.6 mph84%29.83 "Hg2 mi
10:00 am82 °FFog.9 mph84%29.83 "Hg2 mi
9:30 am81 °FFog.10 mph89%29.80 "Hg2 mi
9:00 am79 °FDrizzle. Broken clouds.6 mph89%29.80 "Hg2 mi
8:30 am79 °FLight rain. Broken clouds.3 mph84%29.80 "Hg2 mi
8:00 am79 °FFog.1 mph84%29.80 "Hg2 mi
7:30 am77 °FFog.2 mph89%29.77 "Hg2 mi
7:00 am77 °FLight rain. Broken clouds.1 mph89%29.77 "Hg1 mi
6:30 am77 °FLight rain. Partly cloudy.1 mph89%29.77 "Hg1 mi
6:00 am77 °FFog.2 mph89%29.77 "Hg2 mi
5:30 am77 °FFog.6 mph89%29.74 "Hg2 mi
5:00 am77 °FRain. Partly cloudy.9 mph89%29.74 "Hg1 mi
4:30 am77 °FFog.6 mph89%29.71 "Hg2 mi
4:00 am79 °FFog.5 mph84%29.71 "Hg2 mi
3:30 am79 °FPartly cloudy.8 mph84%29.71 "Hg2 mi
3:00 am79 °FFog.7 mph84%29.71 "Hg2 mi
2:30 am79 °FFog.10 mph84%29.74 "Hg2 mi
2:00 am79 °FFog.7 mph84%29.74 "Hg2 mi
1:30 am79 °FFog.7 mph84%29.74 "Hg2 mi
1:00 am79 °FFog.7 mph84%29.74 "Hg2 mi
12:30 am79 °FFog.7 mph89%29.77 "Hg2 mi
12:00 am79 °FFog.3 mph89%29.77 "Hg2 mi
11:30 pm
Tue, Jul 16
81 °FFog.3 mph84%29.77 "Hg2 mi
11:00 pm79 °FFog.3 mph89%29.77 "Hg2 mi
10:30 pm79 °FFog.5 mph89%29.80 "Hg2 mi
10:00 pm79 °FFog.5 mph89%29.80 "Hg2 mi
9:30 pm79 °FFog.5 mph89%29.80 "Hg2 mi
9:00 pm79 °FFog.6 mph89%29.77 "Hg2 mi
8:30 pm79 °FFog.8 mph89%29.77 "Hg2 mi
8:00 pm81 °FPartly cloudy.6 mph89%29.77 "Hg2 mi
7:00 pm82 °FFog.6 mph79%29.74 "Hg2 mi
6:30 pm82 °FFog.7 mph79%29.74 "Hg2 mi
6:00 pm82 °FFog.9 mph79%29.74 "Hg3 mi
5:30 pm82 °FFog.9 mph79%29.71 "Hg3 mi
5:00 pm82 °FBroken clouds.10 mph84%29.71 "Hg4 mi
4:30 pm84 °FBroken clouds.12 mph79%29.71 "Hg4 mi
4:00 pm84 °FBroken clouds.13 mph79%29.71 "Hg4 mi
Weather by CustomWeather, © 2024

See weather overview